[Date Prev][Date Next][Thread Prev][Thread Next] - [Date Index][Thread Index][Author Index]

2 Line ISS Keps 10-14



ISS
1 25544U 98067A   06286.79175926  .00007163  00000-0  47269-4 0  8558
2 25544 051.6355 296.4287 0013245 093.0617 256.5874 15.76856335451866
----
Sent via sarex@amsat.org. Opinions expressed are those of the author.
Not an AMSAT member? Join now to support the amateur satellite program!
Subscription settings: http://amsat.org/mailman/listinfo/sarex



AMSAT Top AMSAT Home